Find Starlink 3847

NORAD ID: 52333 Int'l Des: 2022-045 Owner: SPXS Country: US Constellation: starlink operational
LEOCIRCULAR

Current View

Loading 3D Globe...

About Starlink 3847

Starlink 3847 (NORAD 52333) is a starlink constellation satellite (v1.5) launched Apr 29, 2022 by SPXS of US. It operates in LEO, CIRCULAR orbit with a mass of 297.00 kg.

About Starlink 3847

Description loading...

Upcoming Passes

Passes for default location (London). Set your location on the main map for personalized predictions.

Altitude History

Loading altitude history...

Two-Line Element Set

1 52333U 22045C 26164.23931072 .00000048 00000-0 21096-4 0 9999
2 52333 53.1601 140.1109 0001328 86.1227 273.9916 15.08831462230055
Epoch: Jun 13, 2026 • Age: 19 hours

Current Status

Altitude 541.8 km
Velocity 7.60 km/s
Sub-Earth Point 35.52°N, 109.09°W
Launch Date Apr 29, 2022
Age 4.1 years
Type internet

Technical Details

Classification Payload
Mass 297.00 kg
Dry Mass 275.00 kg
Total Mass 297.00 kg
Length 0.20 m
Diameter 2.80 m
Span 9.00 m
Shape Box + pan
Manufacturer SPXS
Bus Type Starlink
Phase Status In Orbit
Owner/State SPXS/US

Most Searched